Regional Weather Roundup
Issued by NWS

Home | Current Version | Previous Version | Text Only | Print | Product List | Glossary Off
Versions: 1 2 3 4 5 6 7 8 9 10 11 12 13 14 15 16 17 18 19 20 21 22 23 24 25 26 27 28 29 30 31 32 33 34 35 36 37 38 39 40 41 42 43 44 45 46 47 48 49 50

575
ASUS43 KMPX 052001
RWRMN
WEATHER ROUNDUP FOR MINNESOTA
NATIONAL WEATHER SERVICE TWIN CITIES/CHANHASSEN MN
200 PM CST MON DEC 05 2016


NOTE: "FAIR" INDICATES FEW OR NO CLOUDS BELOW 12,000 FEET WITH NO
SIGNIFICANT WEATHER AND/OR OBSTRUCTIONS TO VISIBILITY. N/A MEANS
CURRENT SKY AND/OR WEATHER CONDITIONS ARE NOT AVAILABLE.

MNZ060>063-068>070-052100-
   Twin Cities Metro

CITY           SKY/WX    TMP DP  RH WIND       PRES   REMARKS
TWIN CITIES    CLOUDY    38  31  76 SE20      29.67F
ST PAUL        LGT RAIN  38  33  82 SE18G24   29.70S
CRYSTAL        LGT RAIN  38  30  73 SE18G24   29.64F
BLAINE         LGT RAIN  39  36  87 SE14G22   29.66S
LAKEVILLE      CLOUDY    36  32  87 SE12G18   29.67F
EDEN PRAIRIE   CLOUDY    39  32  76 SE12      29.64F
SOUTH ST PAUL  MOSUNNY   37  32  81 SE10G16   29.70S
LAKE ELMO      CLOUDY    36  32  87 SE13      29.71F
$$
MNZ001>005-007-008-013>017-022>024-027-028-052100-
   Northwest Minnesota

CITY           SKY/WX    TMP DP  RH WIND       PRES   REMARKS
BEMIDJI        MOSUNNY   30  27  88 E10G16    29.63F WCI  21
HALLOCK        CLOUDY    30  28  93 E14       29.65F WCI  20
ROSEAU         CLOUDY    30  27  86 E9        29.69S WCI  22
WARROAD        CLOUDY    30  27  86 E12       29.71S WCI  21
THIEF RVR FALL CLOUDY    30  27  88 E20       29.62F WCI  17
CROOKSTON      CLOUDY    30  28  93 E15       29.61F WCI  19
FOSSTON        CLOUDY    30  27  86 NE10      29.59F WCI  21
DETROIT LAKES  CLOUDY    34  28  80 E9        29.56S WCI  26
MOORHEAD       CLOUDY    36  27  69 SE8       29.58R
PARK RAPIDS    MOSUNNY   32  25  75 E8        29.58F WCI  25
$$
MNZ006-009>011-018-025>026-052100-
   North Central Minnesota

CITY           SKY/WX    TMP DP  RH WIND       PRES   REMARKS
BAUDETTE       CLOUDY    30  24  78 E12       29.70F WCI  20
FLAG ISLAND    CLOUDY    30  25  80 E7        29.70F WCI  23
INTL FALLS     CLOUDY    30  24  78 E5        29.72F WCI  25
WASKISH        CLOUDY    30  27  86 E13       29.69F WCI  20
BIG FORK       PTSUNNY   30  27  86 E3        29.69F
LONGVILLE      SUNNY     34  27  75 E5        29.64F WCI  30
GRAND RAPIDS   SUNNY     34  28  79 E8        29.69F WCI  27
CRANE LAKE     CLOUDY    28  27  93 CALM      29.77S
ORR            CLOUDY    30  25  80 CALM      29.71F
COOK           CLOUDY    30  27  86 NE3       29.74S
$$
MNZ012-019>021-037-052100-
   Northeast Minnesota

CITY           SKY/WX    TMP DP  RH WIND       PRES   REMARKS
DULUTH         MOSUNNY   34  29  82 E9        29.71F WCI  27
ELY            CLOUDY    28  25  86 E3        29.75S
HIBBING        MOSUNNY   31  27  85 NE9       29.70F WCI  23
EVELETH        MOSUNNY   34  27  76 E7        29.73F WCI  28
DULUTH HARBOR  PTSUNNY   37  32  81 E9        29.76F
TWO HARBORS    PTSUNNY   37  30  75 SE5       29.74F
SILVER BAY     MOSUNNY   34  28  80 E5        29.76S WCI  30
GRAND MARAIS     N/A     35  27  72 CALM      29.81R
G MARAIS ARPRT CLOUDY    28  21  74 CALM      29.75S
$$
MNZ029>031-032-039>041-046>048-054>057-064-052100-
   West Central Minnesota

CITY           SKY/WX    TMP DP  RH WIND       PRES   REMARKS
FERGUS FALLS   CLOUDY    36  30  80 SE14      29.58R
WHEATON        CLOUDY    36  34  93 E18       29.50F
MORRIS         CLOUDY    36  34  93 E13       29.50F
ALEXANDRIA     CLOUDY    35  32  88 E16       29.54F WCI  25
ELBOW LAKE     CLOUDY    34  32  92 SE12      29.54F WCI  25
WADENA         MOSUNNY   30  28  93 E13       29.58R WCI  20
GLENWOOD       CLOUDY    34  32  93 E18       29.54F WCI  23
APPLETON       CLOUDY    37  34  87 SE9       29.50F
BENSON         CLOUDY    37  32  81 SE12G20   29.52F
ORTONVILLE     MOSUNNY   36  32  87 E13       29.47F
MADISON        MOSUNNY   39  37  93 E8        29.47F
WILLMAR        FAIR      37  36  93 SE18      29.54F
$$
MNZ033>034-036-042>043-049>051-058-059-052100-
   Central Minnesota

CITY           SKY/WX    TMP DP  RH WIND       PRES   REMARKS
ST CLOUD       LGT RAIN  34  32  92 E6        29.63S WCI  29
PAYNESVILLE    LGT RAIN  36  36  99 SE14      29.58F
AITKIN         PTSUNNY   34  27  75 E8G17     29.64F WCI  27
PINE RIVER     CLOUDY    34  27  75 E9        29.65F WCI  26
BRAINERD       PTSUNNY   33  27  78 E7        29.63F WCI  27
STAPLES        CLOUDY    30  27  86 E10G17    29.60S WCI  21
LONG PRAIRIE   CLOUDY    34  32  93 E9        29.58F WCI  26
LITTLE FALLS   CLOUDY    34  30  86 E12       29.62S WCI  25
LITCHFIELD     CLOUDY    37  36  93 SE9       29.59F
BUFFALO        LGT RAIN  37  33  84 E3        29.64S
MAPLE LAKE     LGT RAIN  37  35  90 E7        29.63F
$$
MNZ037-044-045-052-053-052100-
   East Central Minnesota

CITY           SKY/WX    TMP DP  RH WIND       PRES   REMARKS
PRINCETON      RAIN      36  32  87 E6        29.66R
MORA           CLOUDY    34  30  86 SE6       29.70R WCI  29
CAMBRIDGE      LGT SNOW  36  30  80 E7        29.64F
RUSH CITY      CLOUDY    34  30  86 SE6       29.70R WCI  29
MOOSE LAKE     CLOUDY    34  28  80 E7        29.68F WCI  28
HINCKLEY       CLOUDY    36  32  87 E9        29.69S
CLOQUET        MOSUNNY   34  28  80 E7        29.71F WCI  28
MCGREGOR       MOSUNNY   34  30  86 E9        29.67F WCI  26
$$
MNZ071>073-080-081-089-090-097-098-052100-
   Southwest Minnesota

CITY           SKY/WX    TMP DP  RH WIND       PRES   REMARKS
MONTEVIDEO     CLOUDY    37  34  87 S14       29.51F
GRANITE FALLS  CLOUDY    40  35  80 E12       29.53S
CANBY          CLOUDY    40  34  77 CALM      29.48F
MARSHALL       CLOUDY    42  34  73 S18G24    29.50F
REDWOOD FALLS  CLOUDY    39  33  79 SE14      29.54F
OLIVIA         MOSUNNY   37  32  81 SE12      29.54F
PIPESTONE      MOSUNNY   41  36  81 SW18G26   29.48F
WINDOM         CLOUDY    45  34  65 S17G23    29.53R
WORTHINGTON    CLOUDY    43  34  70 S23G31    29.52S
JACKSON        CLOUDY    43  32  65 S24G31    29.53F
TRACY          CLOUDY    44  36  74 S14G21    29.51S
SLAYTON        CLOUDY    41  33  74 S17G28    29.51F
$$
MNZ065>067-074>077-082>085-091>093-052100-
   South Central Minnesota

CITY           SKY/WX    TMP DP  RH WIND       PRES   REMARKS
MANKATO        MOSUNNY   40  33  76 SE20      29.62F
NEW ULM        CLOUDY    39  34  81 SE14G21   29.57F
ST JAMES       CLOUDY    45  36  70 SE22G29   29.57F
FAIRMONT       CLOUDY    43  36  76 S25G33    29.59F
GLENCOE        CLOUDY    40  35  82 SE8G20    29.60R
FARIBAULT      CLOUDY    39  34  81 SE16G25   29.67F
OWATONNA       CLOUDY    37  32  81 SE22G28   29.68F
WASECA         CLOUDY    37  32  81 SE18G25   29.67F
ALBERT LEA     PTSUNNY   41  37  87 S17G25    29.69F
$$
MNZ078>079-086>088-094>096-052100-
   Southeast Minnesota

CITY           SKY/WX    TMP DP  RH WIND       PRES   REMARKS
ROCHESTER      PTSUNNY   34  32  92 S21G28    29.75F WCI  22
RED WING       CLOUDY    37  32  81 S10G18    29.74S
STANTON        CLOUDY    39  32  75 S13G23    29.68F
DODGE CENTER   PTSUNNY   34  32  93 S21       29.72F WCI  22
WINONA         PTSUNNY   37  32  81 S8        29.82R
AUSTIN         CLOUDY    36  32  87 S12G18    29.73F
PRESTON        CLOUDY    32  31  93 S15G24    29.77F WCI  22
$$
ABBREVIATIONS USED IN REMARKS
   TC - TEMPERATURES IN CELSIUS
  WCI - WIND CHILL INDEX
   HX - HEAT INDEX
  VSB - VISIBILITY
$$




USA.gov is the U.S. government's official web portal to all federal, state and local government web resources and services.